Temperature
22 23 23 23 23 23 23 23 23 23 23 22 22 23 23 21 21 21 21 20 20 20 19 18 18 18 18 18 18 17 17 17 17 16 16 16 16 15 15 15 15 15 15 15
23 23 23 23 22 23 23 22 23 22 22 22 22 23 23 22 21 21 21 21 20 20 19 18 18 18 18 18 18 17 17 17 17 17 16 16 16 15 15 15 15 15 15 15
22 23 22 22 22 22 23 22 22 22 22 22 22 22 23 22 21 20 20 20 20 20 19 19 18 18 17 17 17 17 17 17 17 17 16 16 16 15 15 15 15 15 15 15
22 22 22 22 22 22 22 23 22 22 22 22 22 22 23 23 22 21 20 20 20 19 19 18 18 17 17 17 17 17 17 17 17 16 16 16 16 15 15 15 15 15 15 15
22 22 22 22 22 22 22 22 22 22 22 22 22 22 23 23 22 22 22 20 20 19 19 18 18 17 17 17 17 17 17 17 17 17 16 16 15 15 15 15 15 15 15 15
22 22 22 22 22 22 22 22 22 22 22 21 22 22 22 23 23 23 22 21 20 19 18 18 17 17 17 17 17 17 17 17 17 16 16 16 15 15 15 15 15 15 15 15
22 22 22 22 22 21 22 22 21 21 21 22 22 21 23 23 23 23 22 21 20 19 18 18 17 17 17 17 17 17 17 17 16 16 16 16 15 15 15 15 15 14 14 14
21 21 22 22 22 22 22 22 21 21 21 22 21 21 23 23 22 21 21 20 19 19 18 18 17 17 17 17 17 17 17 17 16 16 16 16 15 15 15 15 14 14 14 14
21 21 21 21 22 22 22 22 22 22 21 21 22 22 23 22 22 21 20 20 19 19 18 17 17 17 17 17 17 17 17 16 16 16 16 15 15 15 15 14 14 14 14 14
21 21 21 21 21 21 22 22 21 21 20 20 21 22 22 22 22 22 21 20 19 18 18 17 17 17 16 16 16 16 16 16 16 16 16 15 15 15 15 14 14 14 14 14
21 21 21 21 21 21 21 21 21 21 21 20 20 22 23 22 22 22 21 20 19 18 17 17 16 16 16 16 16 16 16 16 16 16 15 15 15 15 14 14 14 14 14 14
20 21 21 21 21 20 21 21 21 20 20 20 20 22 23 22 21 21 21 20 18 18 17 16 16 16 16 16 16 15 15 15 16 15 15 15 15 14 14 14 14 14 14 13
19 20 20 20 20 20 20 20 20 21 20 20 20 21 22 22 21 20 20 19 18 17 16 16 16 16 16 15 15 15 15 15 15 15 15 14 14 14 14 14 13 14 13 13
18 20 20 20 20 20 20 19 20 20 20 20 20 21 22 22 21 20 19 19 18 17 16 16 15 15 15 15 15 15 15 15 15 14 14 14 14 14 14 13 13 13 13 13
19 19 20 20 20 19 19 19 19 19 20 20 21 21 21 21 21 20 19 18 17 17 16 16 15 15 15 15 15 15 14 14 14 14 14 14 14 13 13 13 13 13 13 13
18 19 19 19 19 19 19 19 19 19 19 20 20 20 21 20 19 19 19 17 17 16 16 15 15 15 15 15 14 14 14 14 14 14 14 13 13 13 13 13 13 13 13 12
18 18 18 19 19 18 18 19 19 19 19 20 20 20 20 20 19 18 18 17 17 16 16 15 15 15 14 14 14 14 14 14 14 14 13 13 13 12 12 12 12 12 12 12
17 18 18 18 18 17 20 20 19 19 19 19 19 19 19 18 18 17 17 16 16 16 15 15 15 14 14 14 14 14 14 14 13 13 13 13 12 12 12 12 12 12 12 12
16 17 17 17 17 18 19 18 18 18 18 18 18 18 17 17 17 17 16 15 15 15 15 15 15 14 14 14 14 13 13 13 13 13 13 13 12 12 12 12 12 11 11 11
15 16 16 16 16 17 18 18 17 18 18 17 17 17 16 17 18 18 15 14 14 14 14 14 14 14 14 14 13 13 13 13 13 13 12 12 12 12 12 12 11 11 11 11
15 15 15 16 16 17 17 16 16 17 17 16 15 15 15 16 17 15 14 14 14 14 14 14 14 14 14 13 13 13 13 12 12 12 12 12 12 12 12 11 11 11 11 10
16 16 16 16 16 16 15 15 16 16 15 15 14 14 14 14 14 13 13 13 13 13 13 13 13 13 13 13 13 12 12 12 12 12 11 11 11 11 11 11 11 11 10 10
15 16 16 16 16 15 14 14 13 13 14 13 13 13 13 13 13 12 12 12 12 12 12 12 13 12 12 12 12 12 12 12 11 11 11 11 11 11 10 10 10 10 10 10
15 13 14 14 15 14 13 12 12 12 12 12 12 12 12 12 12 11 12 12 12 12 12 12 12 12 12 12 12 11 11 11 11 11 10 10 10 10 10 10 10 10 9 9
14 13 14 14 14 13 12 12 12 11 11 11 11 11 11 11 11 11 11 11 11 11 11 11 11 11 11 11 11 11 11 10 10 10 10 10 10 9 9 9 9 9 9 9
13 13 14 14 14 14 13 12 11 11 11 10 10 10 10 10 10 10 10 10 10 10 10 10 10 10 10 10 10 10 10 10 10 9 9 9 9 9 9 8 8 9 9 9
Wind_Speed
4 5 5 5 5 4 4 5 4 3 2 4 6 7 6 5 7 8 8 8 8 8 7 6 6 6 6 6 6 5 6 5 5 4 3 3 3 2 2 2 2 2 2 2
5 6 3 3 3 5 6 6 4 2 2 4 6 8 7 6 8 9 9 9 9 9 8 7 7 7 7 7 6 6 6 6 5 3 3 2 2 2 2 2 2 2 2 2
7 2 3 5 6 6 6 7 6 4 3 5 6 7 6 6 7 7 9 9 9 9 9 9 8 8 7 7 7 6 6 6 5 4 3 3 2 2 2 2 2 2 2 2
5 4 4 5 6 7 7 5 6 6 6 4 4 5 4 5 6 7 9 10 10 10 10 9 9 9 8 8 7 7 6 6 5 5 4 5 4 3 3 2 2 3 3 3
4 4 6 6 5 6 4 3 5 6 7 7 6 6 4 4 6 6 8 9 10 10 10 10 9 9 8 7 7 6 6 6 5 5 5 5 4 3 2 2 3 3 3 3
4 3 4 4 1 3 3 4 5 6 6 7 6 6 4 4 5 4 6 8 9 10 10 10 9 8 7 7 6 6 6 6 5 5 6 6 5 4 4 4 3 3 3 3
5 5 4 4 4 4 6 6 4 5 5 5 2 6 5 2 3 5 5 6 7 8 10 10 10 9 8 7 7 7 7 7 6 7 6 6 6 5 5 4 4 4 3 3
6 6 5 4 6 5 7 8 6 4 4 3 3 6 3 1 3 4 5 5 6 8 9 10 9 9 8 8 7 7 8 7 7 7 6 6 5 4 4 5 4 5 4 4
4 3 2 2 3 5 6 7 6 7 6 7 5 4 3 2 3 3 4 4 6 7 8 9 9 8 8 8 8 8 8 8 7 7 7 6 6 5 5 6 5 5 5 4
4 4 3 2 3 2 4 4 5 6 5 6 6 6 4 2 2 2 3 5 5 6 7 8 8 8 7 7 7 7 8 8 7 7 7 6 6 6 6 6 6 6 5 5
5 6 4 4 6 6 5 6 6 5 6 5 5 3 1 2 2 3 3 4 6 7 7 7 7 7 6 6 6 6 7 7 7 7 7 6 6 6 6 6 6 6 6 5
4 5 7 6 3 3 7 8 8 8 7 7 7 5 1 1 2 3 3 3 4 5 6 6 6 6 5 6 6 6 6 7 7 7 7 6 6 6 7 7 7 6 6 6
3 5 6 6 5 5 5 6 8 8 7 9 10 6 2 1 2 3 3 3 3 5 5 5 5 5 5 5 5 5 6 6 6 6 6 7 6 6 7 6 6 6 6 6
4 7 9 9 6 4 7 8 9 10 10 11 13 13 9 7 6 5 4 4 4 4 5 5 5 5 5 5 5 5 5 5 6 6 7 7 7 7 6 6 5 6 6 6
4 8 10 11 9 8 11 12 12 14 15 14 14 13 12 10 8 7 5 4 4 4 5 6 6 5 5 5 4 4 4 5 6 6 7 7 7 6 6 5 5 5 5 6
4 7 8 10 9 10 13 14 14 15 15 16 16 15 11 8 7 6 5 4 4 5 5 5 5 5 5 5 4 4 4 5 5 6 7 6 6 6 6 5 5 5 5 5
5 7 8 10 8 9 12 13 14 13 12 13 14 12 9 7 6 6 5 5 5 5 5 5 5 6 5 5 5 5 5 5 5 6 6 6 6 6 6 5 5 5 5 5
8 8 7 8 7 11 5 1 6 9 9 9 10 9 8 8 8 6 5 5 5 5 5 5 5 5 5 5 5 4 4 4 5 6 6 6 7 7 6 5 5 6 5 5
9 8 6 7 10 10 6 3 3 7 8 5 6 7 7 7 6 5 3 4 5 5 5 5 4 4 4 4 4 4 4 4 5 5 6 6 7 7 7 6 6 6 5 5
5 8 7 8 9 8 4 1 3 6 8 2 5 6 7 5 6 5 4 5 5 4 3 3 3 3 4 4 4 4 4 4 5 5 5 6 6 7 7 7 7 6 5 5
5 7 10 12 11 8 2 2 2 6 3 5 6 7 6 6 6 6 6 5 4 2 2 2 2 3 3 3 4 4 4 4 4 4 4 5 5 6 6 6 6 6 5 5
7 6 8 8 10 7 2 1 2 5 6 6 7 7 6 6 6 5 5 4 3 1 1 1 2 1 2 3 4 4 4 4 3 3 4 4 4 4 4 5 5 5 5 5
6 5 5 6 5 3 2 3 4 5 6 6 7 7 6 5 5 5 5 3 2 1 1 1 1 1 2 2 3 3 3 3 3 3 3 3 3 3 3 4 5 5 5 5
4 4 6 7 7 6 5 5 5 5 5 7 7 6 5 5 5 5 4 3 2 1 1 1 2 2 2 2 3 3 3 3 3 3 3 3 3 3 3 3 4 5 5 5
7 5 7 9 7 6 5 5 6 6 6 7 7 6 6 5 5 5 3 3 2 2 2 2 2 2 2 2 2 2 2 2 3 3 3 3 3 3 3 4 4 5 5 4
8 8 8 8 7 7 7 6 7 7 7 7 7 7 6 5 5 4 3 3 2 2 2 2 2 2 2 2 2 2 2 3 3 3 3 2 2 2 3 3 2 1 2 2
Wind_Direction
176 192 202 207 223 240 225 227 223 219 192 230 248 259 250 219 218 221 214 209 208 204 195 186 186 186 184 183 181 173 176 173 171 172 180 172 166 157 147 148 143 141 156 159
178 208 221 218 211 214 218 231 238 220 204 249 266 270 260 227 220 222 219 214 211 204 196 187 189 190 192 187 186 182 180 176 176 182 187 185 175 176 152 161 163 168 182 194
210 186 174 196 200 215 225 241 253 252 245 241 274 268 238 218 219 222 223 221 216 208 202 193 191 191 194 194 192 189 184 180 177 177 175 173 175 189 184 184 181 191 199 205
221 215 201 213 221 233 237 243 249 241 249 258 254 282 248 220 215 217 219 217 214 207 204 198 193 194 195 197 195 193 185 183 180 177 187 195 203 211 215 205 198 200 204 207
205 203 214 225 232 243 257 236 227 239 254 264 246 264 262 210 225 220 215 212 210 206 202 200 198 196 195 193 192 191 185 185 186 193 200 215 223 223 215 204 201 206 203 211
230 219 237 242 233 227 196 199 208 227 244 253 247 251 265 221 233 224 213 209 207 203 200 202 199 193 193 190 187 188 191 190 190 200 208 215 220 220 213 215 216 219 214 218
217 209 204 210 204 190 213 231 234 225 224 244 215 248 258 273 255 243 229 212 202 198 196 196 194 193 193 190 188 190 193 195 194 202 209 214 221 222 221 224 223 226 227 224
224 211 192 209 229 229 222 236 250 264 261 268 224 246 261 297 271 253 240 220 203 197 195 194 194 194 196 195 194 195 197 199 196 203 210 214 217 224 228 230 230 230 234 234
233 217 163 225 245 238 222 228 257 270 275 273 251 250 266 228 233 229 219 206 202 196 194 194 195 197 197 198 200 201 202 203 202 205 211 216 218 221 228 232 231 232 237 237
254 243 205 191 193 214 253 226 219 237 254 258 256 253 253 235 247 232 218 213 205 198 197 195 196 199 200 201 203 204 206 207 207 209 213 215 221 225 229 231 230 231 233 230
247 243 217 204 225 223 200 211 228 237 249 260 266 255 252 256 262 247 234 214 198 196 196 194 195 199 201 201 202 205 210 209 210 212 216 217 221 226 227 228 231 234 233 228
234 252 243 230 233 274 242 236 230 241 244 249 268 270 100 251 285 277 258 216 197 191 191 193 194 194 196 200 204 208 214 213 213 216 219 223 222 225 228 229 231 232 231 227
217 239 245 225 203 199 222 228 235 249 257 251 254 256 131 261 284 274 255 233 203 192 192 192 194 196 199 202 205 208 215 220 216 217 222 225 225 228 230 230 232 231 229 226
243 244 248 254 272 255 245 240 239 240 249 254 253 267 276 287 293 289 269 245 223 207 201 200 205 208 205 205 209 214 217 223 220 219 223 227 228 229 230 229 229 227 227 226
236 252 252 261 269 263 260 254 245 245 251 260 268 270 279 288 291 289 276 248 230 221 212 207 209 210 209 208 212 216 221 222 220 220 224 228 229 228 228 225 225 225 225 228
238 252 256 255 254 257 259 254 248 248 253 257 265 269 279 290 290 287 276 250 236 230 223 214 212 210 213 216 217 217 221 223 223 224 226 225 224 223 225 221 221 221 223 227
234 244 255 259 262 265 254 248 242 239 241 251 259 271 285 281 282 284 284 262 244 239 234 225 219 217 217 219 222 223 224 222 223 226 225 220 217 217 222 220 216 218 221 222
242 242 249 262 257 251 263 294 249 248 252 256 268 283 285 287 288 280 276 269 261 254 248 239 230 224 221 219 223 227 223 222 225 224 223 221 218 218 218 216 217 221 221 218
231 231 239 248 253 260 261 259 249 248 258 273 278 292 303 305 280 259 282 286 279 269 258 247 239 229 221 218 219 220 221 225 232 232 227 223 221 219 218 214 216 219 219 219
205 221 234 240 253 257 268 336 305 260 252 300 303 302 307 301 271 283 332 314 295 281 263 247 228 214 211 213 209 214 221 227 237 240 240 234 226 223 219 218 216 213 213 217
201 217 230 241 250 258 308 346 260 243 295 340 311 302 298 281 292 310 317 309 295 276 258 229 207 199 205 204 205 218 230 241 246 245 244 239 231 227 222 219 211 205 206 210
236 233 232 237 244 250 58 342 263 312 335 328 321 315 302 297 308 312 313 311 299 274 245 211 194 191 195 202 207 222 241 253 254 246 242 238 232 230 222 212 206 204 202 203
241 247 255 245 255 314 313 296 310 320 315 323 319 318 315 310 307 311 310 309 294 272 256 230 190 184 198 209 216 229 252 256 248 238 236 239 231 225 223 211 201 201 204 207
247 262 258 260 257 272 280 287 305 317 314 315 314 312 310 308 308 308 304 298 296 288 280 246 218 221 234 234 239 241 248 245 235 232 229 230 224 219 215 212 207 206 209 211
262 253 259 263 269 273 264 272 293 305 308 308 308 304 301 298 297 297 294 294 297 299 283 260 245 247 256 252 253 261 251 238 234 231 230 230 224 219 213 211 212 212 215 217
249 249 253 264 276 278 285 292 292 291 295 296 296 297 296 290 286 286 290 297 293 297 294 287 279 269 267 260 262 276 265 242 234 236 235 236 227 218 212 208 204 157 204 172
Height
1514 1514 1514 1514 1514 1515 1515 1517 1519 1519 1519 1520 1520 1519 1519 1521 1523 1524 1524 1526 1527 1529 1531 1533 1534 1535 1537 1538 1539 1541 1542 1543 1543 1544 1545 1546 1546 1547 1547 1547 1548 1548 1549 1549
1514 1514 1513 1514 1516 1516 1516 1519 1519 1519 1519 1519 1518 1516 1515 1518 1520 1521 1522 1523 1524 1527 1529 1530 1532 1533 1535 1536 1538 1539 1540 1542 1543 1543 1544 1545 1546 1546 1547 1547 1547 1548 1548 1548
1513 1513 1514 1515 1516 1516 1516 1518 1518 1519 1519 1518 1518 1515 1512 1513 1517 1519 1520 1521 1522 1524 1526 1528 1530 1531 1533 1534 1536 1537 1539 1540 1541 1542 1543 1544 1544 1545 1546 1546 1546 1546 1547 1547
1512 1513 1515 1515 1515 1515 1517 1514 1516 1518 1520 1518 1519 1520 1509 1509 1512 1514 1516 1518 1519 1522 1524 1526 1527 1529 1531 1532 1534 1536 1537 1539 1540 1541 1541 1542 1543 1544 1544 1545 1545 1545 1545 1546
1512 1513 1514 1514 1514 1514 1513 1515 1515 1516 1517 1518 1516 1519 1509 1506 1508 1509 1511 1514 1516 1518 1521 1523 1525 1527 1529 1530 1532 1534 1535 1537 1538 1539 1540 1541 1541 1542 1542 1542 1543 1543 1544 1544
1511 1513 1513 1512 1513 1514 1515 1516 1515 1515 1515 1522 1514 1518 1511 1503 1503 1504 1507 1510 1513 1515 1518 1520 1522 1524 1526 1528 1529 1531 1533 1535 1536 1537 1538 1539 1539 1540 1540 1540 1541 1541 1542 1542
1511 1511 1511 1513 1514 1515 1514 1516 1521 1521 1522 1518 1511 1515 1507 1499 1501 1503 1505 1508 1510 1513 1515 1517 1520 1522 1523 1525 1527 1529 1530 1532 1533 1534 1535 1536 1537 1538 1538 1538 1539 1539 1539 1539
1513 1513 1510 1510 1511 1512 1512 1512 1521 1526 1522 1514 1512 1512 1501 1499 1502 1503 1505 1506 1508 1510 1512 1515 1517 1519 1521 1523 1524 1526 1528 1529 1530 1531 1533 1533 1534 1535 1535 1536 1536 1537 1537 1537
1511 1511 1509 1510 1510 1510 1511 1511 1509 1514 1516 1519 1510 1504 1499 1499 1500 1502 1503 1504 1506 1508 1510 1512 1514 1516 1518 1520 1521 1523 1525 1526 1527 1528 1530 1531 1532 1532 1532 1533 1533 1534 1534 1534
1508 1511 1509 1510 1511 1511 1509 1508 1512 1515 1522 1523 1513 1507 1502 1497 1497 1499 1501 1502 1504 1506 1508 1510 1512 1514 1515 1517 1518 1520 1522 1523 1524 1525 1527 1527 1528 1529 1529 1530 1530 1530 1531 1531
1509 1510 1510 1509 1508 1508 1511 1511 1510 1511 1512 1517 1516 1507 1493 1495 1496 1497 1499 1501 1502 1504 1506 1508 1509 1511 1513 1514 1516 1517 1518 1520 1521 1522 1523 1524 1524 1525 1525 1526 1526 1527 1527 1528
1509 1508 1508 1506 1506 1507 1505 1505 1507 1514 1513 1511 1511 1506 1492 1495 1496 1497 1498 1500 1501 1502 1504 1505 1507 1509 1510 1511 1513 1514 1515 1516 1517 1518 1519 1520 1521 1521 1522 1522 1523 1523 1524 1524
1510 1509 1511 1509 1510 1509 1507 1506 1506 1506 1508 1509 1512 1504 1493 1494 1496 1497 1498 1499 1500 1501 1502 1503 1505 1506 1507 1508 1510 1510 1512 1512 1513 1514 1515 1516 1517 1517 1518 1518 1519 1519 1520 1520
1511 1506 1508 1510 1504 1503 1505 1506 1506 1507 1508 1505 1502 1497 1492 1493 1494 1495 1497 1497 1498 1499 1500 1501 1502 1504 1505 1506 1507 1508 1508 1509 1510 1511 1511 1512 1513 1513 1514 1514 1515 1515 1516 1517
1509 1505 1502 1501 1501 1503 1504 1503 1504 1503 1500 1500 1495 1494 1491 1491 1493 1494 1495 1496 1496 1497 1498 1499 1500 1501 1502 1503 1504 1504 1505 1506 1506 1507 1508 1508 1509 1509 1510 1510 1511 1511 1512 1513
1507 1505 1503 1503 1502 1502 1502 1499 1498 1499 1497 1495 1493 1491 1489 1491 1493 1493 1493 1494 1494 1495 1496 1496 1497 1498 1498 1500 1500 1501 1502 1502 1503 1503 1504 1504 1505 1505 1506 1506 1507 1507 1508 1508
1505 1504 1505 1501 1499 1501 1498 1491 1491 1492 1491 1492 1491 1488 1488 1490 1491 1491 1491 1491 1492 1492 1493 1493 1494 1495 1495 1496 1497 1498 1498 1499 1499 1500 1500 1501 1501 1501 1502 1502 1502 1503 1503 1504
1504 1503 1503 1501 1501 1504 1488 1486 1487 1488 1488 1489 1488 1488 1489 1489 1489 1489 1489 1489 1489 1490 1490 1491 1491 1492 1493 1493 1494 1495 1495 1496 1496 1496 1497 1497 1497 1498 1498 1498 1499 1499 1500 1500
1503 1503 1503 1501 1499 1491 1487 1487 1488 1488 1487 1488 1488 1488 1488 1488 1486 1486 1487 1487 1487 1487 1487 1488 1488 1489 1489 1490 1491 1491 1492 1493 1493 1493 1493 1493 1494 1494 1494 1494 1495 1496 1496 1497
1502 1501 1502 1501 1501 1495 1486 1487 1488 1489 1486 1487 1488 1487 1487 1486 1483 1482 1484 1484 1484 1484 1484 1484 1485 1485 1486 1487 1488 1488 1489 1489 1489 1489 1489 1490 1490 1490 1490 1491 1492 1492 1493 1493
1500 1500 1499 1496 1494 1487 1486 1489 1489 1490 1486 1488 1487 1487 1486 1485 1484 1484 1482 1482 1481 1481 1481 1481 1482 1482 1483 1484 1484 1485 1486 1486 1486 1486 1486 1486 1486 1487 1487 1487 1488 1489 1489 1490
1493 1494 1494 1493 1494 1490 1488 1489 1489 1488 1488 1488 1487 1486 1485 1483 1482 1481 1480 1479 1479 1479 1479 1479 1479 1479 1480 1481 1481 1482 1482 1483 1482 1482 1482 1482 1482 1483 1483 1483 1484 1485 1485 1486
1491 1490 1489 1489 1489 1488 1489 1489 1490 1489 1488 1487 1486 1485 1484 1482 1481 1480 1479 1478 1477 1477 1477 1477 1477 1477 1478 1478 1479 1479 1479 1479 1479 1479 1479 1479 1479 1479 1479 1480 1480 1481 1481 1482
1491 1493 1491 1488 1486 1488 1488 1488 1488 1487 1487 1486 1485 1484 1482 1481 1479 1478 1477 1476 1476 1475 1475 1475 1475 1475 1475 1476 1476 1476 1476 1476 1476 1476 1475 1476 1476 1476 1476 1476 1477 1477 1478 1478
1490 1491 1488 1485 1485 1486 1486 1486 1486 1485 1485 1484 1483 1482 1480 1479 1478 1476 1475 1474 1474 1473 1473 1473 1472 1473 1473 1473 1473 1473 1473 1473 1473 1473 1473 1472 1473 1472 1472 1472 1473 1473 1474 1474
1489 1488 1486 1482 1483 1484 1483 1483 1483 1483 1482 1481 1480 1478 1477 1476 1475 1474 1473 1472 1472 1471 1471 1470 1470 1470 1470 1470 1470 1470 1470 1470 1470 1470 1470 1470 1469 1469 1469 1469 1469 1469 1470 1470